[[{"header":{"parameterUnit":"m.s-1","parameterCategory":1,"la1":30.2991,"la2":30.254,"lo1":-89.0895,"lo2":-89.0444,"dy":0.0017,"dx":0.0017,"nx":28,"ny":28,"refTime":"2024-04-13T03:00:00:Z","depth":0,"parameterNumber":2,"parameterNumberName":"U-component_of_WINDS"},"data":[0,0,0,0,0,0,0,0,0,0,0,0,0,0,0,0,0,0,0,0,0,0,0,0,0,0,0,0,0,0,0,0,0,0,0,0,0,0,0,0,0,0,0,0,0,0,0,0,0,0,0,0,0,0,0,0,0,0,-0.3094,-0.3094,0,-0.3093,-0.3093,-0.3093,-0.308,-0.308,-0.308,-0.3079,-0.3078,-0.3079,-0.3079,0,0,0,0,0,0,0,0,0,0,0,0,0,-0.3085,-0.3086,-0.3094,-0.3094,-0.3094,-0.3093,-0.3093,-0.3093,-0.308,-0.308,-0.308,-0.3079,-0.3078,-0.3078,-0.3079,0,0,0,0,0,0,0,0,0,0,0,0,0,-0.3087,-0.3086,-0.3094,-0.3088,-0.3087,-0.3093,-0.3093,-0.3093,-0.308,-0.308,-0.3079,-0.3079,-0.3078,-0.3078,-0.3079,-0.3091,0,0,-0.308,-0.308,0,0,0,0,0,0,0,0,-0.3087,-0.3088,-0.3089,-0.3088,-0.3087,-0.3086,-0.3089,-0.3092,-0.3081,-0.3083,-0.3079,-0.3079,-0.3081,-0.3081,-0.3082,-0.3091,-0.3091,-0.308,-0.308,-0.3081,-0.3081,0,0,0,0,0,0,0,-0.3087,-0.3088,-0.3094,-0.3089,-0.3088,-0.3085,-0.3085,-0.309,-0.3085,-0.3083,-0.3082,-0.3082,-0.3081,-0.3082,-0.3082,-0.3091,-0.308,-0.308,-0.3081,-0.3081,-0.311,-0.3111,0,0,0,0,0,0,-0.3088,-0.3088,-0.3094,-0.3094,-0.3086,-0.3085,-0.3085,-0.3087,-0.3085,-0.3084,-0.3082,-0.3081,-0.3081,-0.3082,-0.3082,-0.3097,-0.3081,-0.3081,-0.3081,-0.3109,-0.311,-0.3111,0,0,0,0,0,0,-0.3088,-0.3088,-0.3094,-0.309,-0.3091,-0.3086,-0.3088,-0.3087,-0.3088,-0.3084,-0.3083,-0.3084,-0.3081,-0.3081,-0.3089,-0.3097,-0.3081,-0.3081,-0.3109,-0.311,-0.311,-0.3126,0,0,0,0,0,0,-0.3087,-0.3088,-0.3093,-0.309,-0.3091,-0.3101,-0.3089,-0.3088,-0.3089,-0.3088,-0.3086,-0.3085,-0.3081,-0.3088,-0.3089,-0.3097,-0.3082,-0.3108,-0.3109,-0.311,-0.3125,-0.3127,-0.3129,0,0,0,0,0,-0.3087,-0.3097,-0.3093,-0.3094,-0.3096,-0.3101,-0.3101,-0.3096,-0.309,-0.3094,-0.3092,-0.3085,-0.3095,-0.3089,-0.309,-0.3098,-0.3108,-0.3109,-0.311,-0.3124,-0.3127,-0.3129,0,0,0,0,0,0,-0.3101,-0.3097,-0.3092,-0.3102,-0.3102,-0.3099,-0.3104,-0.3099,-0.3101,-0.31,-0.3093,-0.3093,-0.3101,-0.31,-0.3094,-0.311,-0.31,-0.3102,-0.311,-0.3113,-0.3115,-0.3116,-0.3082,0,0,0,0,0,-0.3105,-0.3109,-0.3105,-0.3114,-0.3114,-0.3109,-0.3111,-0.3107,-0.3107,-0.3107,-0.3105,-0.3105,-0.3108,-0.311,-0.3113,-0.3124,-0.3124,-0.313,-0.3132,-0.3134,-0.3136,-0.3142,-0.3145,-0.3115,-0.3115,-0.3115,0,0,-0.3113,-0.3111,-0.3114,-0.3116,-0.3116,-0.312,-0.3109,-0.3114,-0.3118,-0.3107,-0.3115,-0.3113,-0.3113,-0.3122,-0.3127,-0.3122,-0.3144,-0.3135,-0.3137,-0.3138,-0.3144,-0.3146,-0.3149,-0.3115,-0.3115,-0.3115,0,0,-0.3131,-0.313,-0.3137,-0.3137,-0.3137,-0.3133,-0.3135,-0.3133,-0.3132,-0.3139,-0.3132,-0.3135,-0.3141,-0.3141,-0.3142,-0.3161,-0.3155,-0.3161,-0.3174,-0.318,-0.3182,-0.3184,-0.3192,-0.3195,-0.3163,-0.3163,-0.3163,0,-0.3141,-0.3148,-0.3142,-0.3148,-0.3149,-0.314,-0.3147,-0.3148,-0.3148,-0.3149,-0.3144,-0.3151,-0.315,-0.316,-0.3165,-0.3165,-0.3168,-0.3162,-0.3182,-0.3185,-0.3186,-0.3193,-0.3196,-0.3164,-0.3164,-0.3164,-0.3164,0,-0.3161,-0.3166,-0.3172,-0.3173,-0.3175,-0.3182,-0.3177,-0.3179,-0.3175,-0.3173,-0.318,-0.3179,-0.3182,-0.3183,-0.3179,-0.3193,-0.319,-0.3184,-0.3174,-0.319,-0.3197,-0.3199,-0.3165,-0.3165,-0.3165,-0.3164,0,0,-0.3188,-0.3185,-0.3188,-0.3189,-0.3187,-0.3191,-0.3197,-0.32,-0.3203,-0.3204,-0.3209,-0.3214,-0.3209,-0.321,-0.3205,-0.3211,-0.3226,-0.3204,-0.3204,-0.3209,-0.3243,-0.3248,-0.3251,-0.3222,-0.3223,-0.3223,-0.3243,0,-0.3206,-0.3217,-0.3212,-0.3223,-0.3228,-0.3219,-0.3225,-0.3225,-0.3223,-0.3227,-0.3224,-0.3228,-0.322,-0.3221,-0.3226,-0.3224,-0.3233,-0.3222,-0.3228,-0.3229,-0.323,-0.3255,-0.326,-0.3279,-0.3245,-0.3246,-0.3246,0,-0.3228,-0.323,-0.3243,-0.3241,-0.3243,-0.3248,-0.3251,-0.3254,-0.3254,-0.3252,-0.3254,-0.3248,-0.3255,-0.3245,-0.3254,-0.3246,-0.3249,-0.3248,-0.3248,-0.325,-0.3239,-0.3257,-0.3285,-0.3288,-0.325,-0.3249,-0.3249,0,-0.3248,-0.3253,-0.3262,-0.3262,-0.3261,-0.3265,-0.3264,-0.3264,-0.3266,-0.3268,-0.3269,-0.3272,-0.3274,-0.3276,-0.3271,-0.3264,-0.3281,-0.3271,-0.3281,-0.3281,-0.3285,-0.3285,-0.3315,-0.3285,-0.3285,-0.3285,-0.3285,0,-0.3269,-0.3277,-0.327,-0.3276,-0.3285,-0.3278,-0.3288,-0.3286,-0.3286,-0.3291,-0.3283,-0.3288,-0.3281,-0.3286,-0.3282,-0.3291,-0.3291,-0.329,-0.3289,-0.3292,-0.3292,-0.3294,-0.3293,-0.3286,-0.3286,-0.3286,-0.3285,0,-0.3292,-0.3288,-0.3297,-0.3295,-0.3294,-0.3301,-0.3299,-0.3304,-0.3302,-0.3308,-0.3309,-0.3305,-0.331,-0.3305,-0.3309,-0.3307,-0.3319,-0.3316,-0.3319,-0.3319,-0.3329,-0.3329,-0.3361,-0.3366,-0.3333,-0.3333,-0.3333,0,-0.3307,-0.3313,-0.3311,-0.3314,-0.3314,-0.3319,-0.3321,-0.3315,-0.3318,-0.3319,-0.3324,-0.3328,-0.3331,-0.3339,-0.3336,-0.334,-0.3337,-0.3348,-0.3337,-0.334,-0.3338,-0.3339,-0.3339,-0.3351,-0.3351,-0.3351,-0.3352,0,-0.3333,-0.3331,-0.3334,-0.3337,-0.334,-0.3342,-0.3344,-0.3346,-0.334,-0.3344,-0.3348,-0.3351,-0.3355,-0.336,-0.3362,-0.3362,-0.3356,-0.3355,-0.3358,-0.336,-0.3363,-0.3362,-0.3326,-0.3354,-0.3354,-0.3354,-0.3354,-0.3354,-0.3353,-0.3358,-0.3358,-0.3363,-0.3363,-0.3365,-0.337,-0.3368,-0.3371,-0.3375,-0.3371,-0.3377,-0.3377,-0.338,-0.3381,-0.3386,-0.3381,-0.3384,-0.3385,-0.3387,-0.3389,-0.3361,-0.3386,-0.3386,-0.3386,-0.3386,-0.3386,0,-0.338,-0.3379,-0.3383,-0.3386,-0.3389,-0.3383,-0.3384,-0.3388,-0.3393,-0.3394,-0.3397,-0.3403,-0.3407,-0.3405,-0.3409,-0.3413,-0.3411,-0.3415,-0.3415,-0.3415,-0.3392,-0.339,-0.3417,-0.3417,-0.3417,-0.3417,-0.3417,-0.3417,-0.3394,-0.3403,-0.3401,-0.341,-0.341,-0.3416,-0.3417,-0.3419,-0.3419,-0.3426,-0.343,-0.3428,-0.3428,-0.3432,-0.3436,-0.3435,-0.3437,-0.3442,-0.344,-0.3419,-0.3416,-0.3414,-0.3412,-0.3442,-0.3442,-0.3463,-0.3463,-0.3463]},{"header":{"parameterUnit":"m.s-1","parameterCategory":1,"la1":30.2991,"la2":30.254,"lo1":-89.0895,"lo2":-89.0444,"dy":0.0017,"dx":0.0017,"nx":28,"ny":28,"refTime":"2024-04-13T03:00:00:Z","depth":0,"parameterNumber":3,"parameterNumberName":"V-component_of_WINDS"},"data":[0,0,0,0,0,0,0,0,0,0,0,0,0,0,0,0,0,0,0,0,0,0,0,0,0,0,0,0,0,0,0,0,0,0,0,0,0,0,0,0,0,0,0,0,0,0,0,0,0,0,0,0,0,0,0,0,0,0,-1.9199,-1.9201,0,-1.9331,-1.9332,-1.9334,-1.9359,-1.9358,-1.9357,-1.9356,-1.9491,-1.9495,-1.95,0,0,0,0,0,0,0,0,0,0,0,0,0,-1.8971,-1.8975,-1.9199,-1.9201,-1.9203,-1.933,-1.9332,-1.9334,-1.9359,-1.9358,-1.9357,-1.9356,-1.9489,-1.9495,-1.95,0,0,0,0,0,0,0,0,0,0,0,0,0,-1.9083,-1.8977,-1.9199,-1.923,-1.9235,-1.933,-1.9332,-1.9335,-1.9359,-1.9358,-1.9356,-1.9355,-1.9487,-1.9494,-1.9501,-1.9574,0,0,-1.9522,-1.9525,0,0,0,0,0,0,0,0,-1.9077,-1.9092,-1.9224,-1.9228,-1.9233,-1.9327,-1.9301,-1.9415,-1.936,-1.9312,-1.9356,-1.9354,-1.9437,-1.9448,-1.9476,-1.958,-1.9586,-1.9522,-1.9526,-1.9529,-1.9531,0,0,0,0,0,0,0,-1.9069,-1.9086,-1.9251,-1.9226,-1.9232,-1.9238,-1.9253,-1.9323,-1.9382,-1.9316,-1.9318,-1.9333,-1.944,-1.947,-1.948,-1.9588,-1.9522,-1.9528,-1.9532,-1.9535,-1.976,-1.9762,0,0,0,0,0,0,-1.9056,-1.9079,-1.9247,-1.9255,-1.915,-1.9244,-1.926,-1.9298,-1.9381,-1.9392,-1.9335,-1.9334,-1.9459,-1.9472,-1.9485,-1.9577,-1.9529,-1.9536,-1.954,-1.9758,-1.9761,-1.9763,0,0,0,0,0,0,-1.9051,-1.907,-1.9242,-1.9168,-1.919,-1.9249,-1.9293,-1.9302,-1.9332,-1.9395,-1.9406,-1.9355,-1.9458,-1.9475,-1.9552,-1.9582,-1.9539,-1.9545,-1.9756,-1.9759,-1.9762,-1.9761,0,0,0,0,0,0,-1.9044,-1.9068,-1.9096,-1.9168,-1.9194,-1.9307,-1.9295,-1.9306,-1.9344,-1.9344,-1.9417,-1.9427,-1.9458,-1.9542,-1.9559,-1.959,-1.955,-1.9754,-1.9758,-1.9761,-1.9759,-1.9764,-1.9768,0,0,0,0,0,-1.9036,-1.9091,-1.9098,-1.9118,-1.9231,-1.9308,-1.9323,-1.9358,-1.9346,-1.9375,-1.9416,-1.9425,-1.9576,-1.9549,-1.9569,-1.9603,-1.9752,-1.9757,-1.9761,-1.9757,-1.9763,-1.9768,0,0,0,0,0,0,-1.9021,-1.9101,-1.9109,-1.9189,-1.9242,-1.9312,-1.935,-1.9362,-1.9419,-1.9418,-1.9458,-1.9474,-1.9549,-1.9584,-1.9553,-1.9679,-1.9663,-1.9672,-1.9654,-1.966,-1.9664,-1.9654,-1.9556,0,0,0,0,0,-1.9027,-1.9083,-1.915,-1.9214,-1.924,-1.929,-1.9326,-1.9348,-1.9404,-1.9426,-1.9473,-1.9527,-1.9587,-1.9625,-1.9683,-1.9764,-1.978,-1.9797,-1.9801,-1.9805,-1.9812,-1.9858,-1.9866,-1.9777,-1.9777,-1.9777,0,0,-1.904,-1.909,-1.9123,-1.9212,-1.9256,-1.9313,-1.9309,-1.937,-1.9414,-1.9435,-1.9511,-1.9547,-1.961,-1.969,-1.9727,-1.9721,-1.984,-1.981,-1.9812,-1.9818,-1.9863,-1.9872,-1.9879,-1.978,-1.9779,-1.9779,0,0,-1.9093,-1.9137,-1.9195,-1.9239,-1.9305,-1.9338,-1.9352,-1.9421,-1.9446,-1.9523,-1.9541,-1.9593,-1.9695,-1.974,-1.9776,-1.9847,-1.9858,-1.9865,-1.9888,-1.9933,-1.994,-1.9947,-1.9973,-1.9982,-1.9871,-1.9871,-1.9871,0,-1.9101,-1.9188,-1.9224,-1.9285,-1.9324,-1.9346,-1.9407,-1.9447,-1.9529,-1.9555,-1.9547,-1.9676,-1.972,-1.9811,-1.9829,-1.9857,-1.9875,-1.9857,-1.9936,-1.9943,-1.995,-1.9975,-1.9985,-1.9872,-1.9872,-1.9872,-1.9872,0,-1.9195,-1.9256,-1.9295,-1.9374,-1.9417,-1.9477,-1.9522,-1.9562,-1.9581,-1.9615,-1.9694,-1.9747,-1.9818,-1.9841,-1.9859,-1.9935,-1.9929,-1.9928,-1.9913,-1.9958,-1.9983,-1.9993,-1.9873,-1.9872,-1.9872,-1.9872,0,0,-1.9242,-1.934,-1.9354,-1.939,-1.9465,-1.9513,-1.9574,-1.9643,-1.9677,-1.9732,-1.9786,-1.9872,-1.9872,-1.9913,-1.9937,-1.9976,-2.003,-1.997,-1.9973,-1.998,-2.0117,-2.0118,-2.0129,-2.0037,-2.0039,-2.0041,-2.0112,0,-1.9305,-1.9415,-1.945,-1.9542,-1.9599,-1.9622,-1.9676,-1.9728,-1.9762,-1.9815,-1.9853,-1.9914,-1.9909,-1.9934,-1.9973,-2.0015,-2.0058,-2.001,-2.0088,-2.009,-2.0072,-2.0141,-2.0142,-2.0207,-2.0122,-2.0124,-2.0125,0,-1.9393,-1.945,-1.9548,-1.9617,-1.9642,-1.969,-1.9756,-1.9807,-1.9867,-1.9889,-1.9935,-1.9956,-2.0022,-2.0003,-2.0095,-2.0061,-2.0095,-2.012,-2.0124,-2.0133,-2.0111,-2.0153,-2.0228,-2.0238,-2.014,-2.0139,-2.0138,0,-1.9418,-1.952,-1.9592,-1.9623,-1.9704,-1.9737,-1.9773,-1.9831,-1.987,-1.9929,-1.9955,-2.002,-2.0055,-2.0105,-2.0144,-2.0126,-2.0232,-2.0217,-2.0253,-2.0252,-2.0275,-2.0273,-2.0357,-2.0296,-2.0295,-2.0295,-2.0295,0,-1.9485,-1.9544,-1.9605,-1.9649,-1.9717,-1.9756,-1.9822,-1.9859,-1.9911,-1.9963,-1.9987,-2.0036,-2.0083,-2.0138,-2.0168,-2.024,-2.0256,-2.0276,-2.0284,-2.0275,-2.0272,-2.0298,-2.0294,-2.0298,-2.0297,-2.0297,-2.0296,0,-1.9525,-1.9568,-1.9648,-1.9719,-1.9738,-1.9785,-1.9846,-1.989,-1.9925,-1.9992,-2.0009,-2.0065,-2.0131,-2.0174,-2.0259,-2.0279,-2.0358,-2.0364,-2.0338,-2.0342,-2.0376,-2.0373,-2.048,-2.0497,-2.0423,-2.0424,-2.0424,0,-1.9565,-1.9611,-1.9687,-1.9724,-1.976,-1.9819,-1.9859,-1.99,-1.9941,-2.0014,-2.005,-2.0118,-2.0174,-2.0279,-2.0327,-2.0392,-2.0401,-2.0434,-2.041,-2.04,-2.0402,-2.0399,-2.0404,-2.0437,-2.0438,-2.0439,-2.0439,0,-1.9631,-1.9651,-1.9708,-1.9774,-1.9822,-1.9875,-1.9929,-1.9958,-2.0008,-2.0053,-2.0122,-2.0165,-2.0252,-2.032,-2.039,-2.0427,-2.0442,-2.0446,-2.0458,-2.0449,-2.0433,-2.0443,-2.0349,-2.0443,-2.0443,-2.0443,-2.0442,-2.0442,-1.9673,-1.9716,-1.9776,-1.984,-1.9885,-1.9934,-1.998,-2.0021,-2.0079,-2.0153,-2.0173,-2.0245,-2.0304,-2.04,-2.0438,-2.0495,-2.0491,-2.0508,-2.0513,-2.0517,-2.0518,-2.0423,-2.0508,-2.0508,-2.0508,-2.0508,-2.0508,0,-1.9742,-1.9782,-1.984,-1.9915,-1.9965,-1.9975,-2.0035,-2.0076,-2.0139,-2.0193,-2.0249,-2.0328,-2.0394,-2.0447,-2.0515,-2.0551,-2.056,-2.0567,-2.0566,-2.0574,-2.0517,-2.05,-2.0559,-2.0559,-2.0559,-2.0559,-2.0559,-2.0559,-1.9783,-1.9856,-1.9883,-1.9979,-2.0019,-2.0089,-2.0123,-2.0169,-2.0213,-2.03,-2.0355,-2.0389,-2.0444,-2.0516,-2.0578,-2.0592,-2.0616,-2.0623,-2.0638,-2.0584,-2.0578,-2.0572,-2.0557,-2.0627,-2.0628,-2.0691,-2.0692,-2.0692]}]]